Weather Roundup
Issued by NWS

Home | Current Version | Previous Version | Graphics & Text | Print | Product List | Glossary Off
Versions: 1 2 3 4 5 6 7 8 9 10 11 12 13 14 15 16 17 18 19 20 21 22 23 24 25 26 27 28 29 30 31 32 33 34 35 36 37 38 39 40 41 42 43 44 45 46 47 48 49 50

000
NZUS93 KARX 020510
HRRWXR

CURRENT HOURLY OBSERVATIONS ACROSS
MUCH OF THE UPPER MISSISSIPPI VALLEY
NATIONAL WEATHER SERVICE LA CROSSE WI
1200 AM CDT TUE SEP 02 2014


...SOUTHEAST MINNESOTA...


CITY           SKY/WX    TMP DP  RH WIND       PRES   REMARKS
ROCHESTER      CLEAR     59  56  89 SW6       29.85F
ROCHESTER/MAYO FAIR      63  56  80 CALM      29.85S
WINONA         CLEAR     61  59  94 CALM      29.84R
AUSTIN         CLEAR     57  55  94 SW5       29.86R
ALBERT LEA     CLEAR     61  59  94 CALM      29.87R
DODGE CENTER   CLEAR     59  57  94 W5        29.85S
PRESTON        CLEAR     60  59  97 CALM      29.87R
OWATONNA       CLEAR     61  55  82 SW5       29.85R
FARIBAULT      CLEAR     64  57  77 CALM      29.84R
$$

...ELSEWHERE IN MINNESOTA...


CITY           SKY/WX    TMP DP  RH WIND       PRES   REMARKS
MINNEAPOLIS    PTCLDY    66  59  78 S5        29.80F
INTNL FALLS    CLEAR     51  49  92 W6        29.73S
DULUTH         CLOUDY    58  51  78 W7        29.76F
RED WING       CLEAR     59  57  94 CALM      29.81S
REDWOOD FALLS  MOCLDY    64  57  78 W6        29.83S
MANKATO        CLEAR     63  55  77 SW7       29.84R
WORTHINGTON    MOCLDY    61  55  82 W7        29.89S
FAIRMONT       CLEAR     61  54  77 CALM      29.86S
$$

...SOUTHWEST WISCONSIN...


CITY           SKY/WX    TMP DP  RH WIND       PRES   REMARKS
LA CROSSE      PTCLDY    63  60  90 SE3       29.84R
PRAIRIE DU CHI CLEAR     62  60  93 CALM      29.85R
BOSCOBEL       PTCLDY    63  60  90 CALM      29.86R FOG
LONE ROCK      MOCLDY    65  60  84 CALM      29.86R
PLATTEVILLE    MOCLDY    65  63  91 CALM      29.88R
FORT MC COY    CLEAR     56  55  97 CALM      29.86R
CAMP DOUGLAS   FOG       55  55 100 SE2       29.85R VSB 1
VIROQUA        FAIR      60  60 100 SW5       29.87R
WIS DELLS      MOCLDY    62  59  90 CALM      29.85R
$$

...ELSEWHERE IN WISCONSIN...


CITY           SKY/WX    TMP DP  RH WIND       PRES   REMARKS
MILWAUKEE      MOCLDY    69  63  81 W5        29.84R
MADISON        CLOUDY    65  60  84 CALM      29.85R
GREEN BAY      CLEAR     62  59  90 W6        29.81R
EAU CLAIRE     CLEAR     60  58  92 SW5       29.81R
BLACK RVR FLS  FAIR      55  55 100 CALM      29.83R
MEDFORD        CLEAR     56  54  92 SW3       29.82R
WAUSAU         CLEAR     60  56  86 NW3       29.81R
WIS RAPIDS     CLEAR     58  57  97 CALM      29.85R FOG
MARSHFIELD     PTCLDY    59  55  87 W6        29.83R
RICE LAKE      CLEAR     56  55  95 CALM      29.82S
$$

...NORTHEAST IOWA...


CITY           SKY/WX    TMP DP  RH WIND       PRES   REMARKS
WATERLOO       CLEAR     62  61  96 S6        29.86R
DUBUQUE        MOCLDY    63  62  97 S3        29.87R
DECORAH        PTCLDY    61  59  94 CALM      29.86R
MASON CITY     CLEAR     58  57  97 CALM      29.88R
CHARLES CITY   CLEAR     61  59  94 CALM      29.87R
OELWEIN        CLEAR     61  61 100 CALM      29.88R
$$

...ELSEWHERE IN IOWA...


CITY           SKY/WX    TMP DP  RH WIND       PRES   REMARKS
DES MOINES     PTCLDY    67  63  87 S8        29.89R
IOWA CITY      MOCLDY    68  66  93 CALM      29.88R
FORT DODGE     CLEAR     61  57  88 CALM      29.89R
MARSHALLTOWN   CLEAR     64  62  93 SW5       29.88R
CEDAR RAPIDS   PTCLDY    63  63 100 S3        29.87R
$$

...NORTHERN ILLINOIS...


CITY           SKY/WX    TMP DP  RH WIND       PRES   REMARKS
CHICAGO-OHARE  CLOUDY    72  66  81 W6        29.86R
DUPAGE         CLOUDY    70  67  90 SW5       29.87R
CHICAGO-MIDWAY CLOUDY    76  68  76 SW13      29.86R
MOLINE         LGT RAIN  69  66  90 SE5       29.86F
ROCKFORD       CLOUDY    68  65  90 SW6       29.88R
STERLING       CLOUDY    70  66  88 W3        29.88S
PEORIA         CLOUDY    72  66  81 CALM      29.88F
$$

NOTE: "FAIR" INDICATES FEW OR NO CLOUDS BELOW 12,000 FEET WITH NO
SIGNIFICANT WEATHER AND/OR OBSTRUCTIONS TO VISIBILITY. WIND
SPEEDS ARE IN MILES-PER-HOUR.



USA.gov is the U.S. government's official web portal to all federal, state and local government web resources and services.